#timestamp,LO_Frequency,Hit,StdDev 
1700550015.0,286047000.5,N
1700550015.9,286047000.5,N
1700550035.8,286047003.8,N
1700550055.6,286046999.9,N
1700550075.4,286046999.1,N
1700550095.3,286046998.3,N
1700550115.1,286047000.7,N
1700550135.8,286047000.3,N
1700550155.7,286047000.8,N
1700550175.5,286046998.3,N
1700550195.4,286047002.4,N
1700550215.2,286046999.7,N
1700550235.0,286047001.7,N
1700550235.9,286047001.7,N
1700550255.8,286047003.9,N
1700550275.6,286047001.3,N
1700550295.4,286047004.1,N
1700550315.3,286047004.0,N
1700550335.1,286047003.9,N
1700550355.9,286047004.2,N
1700550375.7,286047001.3,N
1700550395.5,286047004.3,N
1700550415.4,286047003.2,N
1700550435.2,286047005.1,N
1700550455.1,286047008.8,Y
1700550456.0,286047008.8,P
1700550475.8,286047009.8,N
1700550495.6,286047006.4,N
1700550515.5,286047007.5,N
1700550535.3,286047006.9,N
1700550555.1,286047004.7,N
1700550575.9,286047007.3,N
1700550595.7,286047007.9,Y
1700550615.6,286047004.2,P
1700550635.4,286047007.6,P
1700550655.2,286047002.2,N
1700550675.1,286047002.0,N
1700550676.0,286047002.0,N
1700550695.8,286047000.3,N
1700550715.7,286047001.2,N
1700550735.5,286047002.7,N
1700550755.3,286047004.4,N
1700550775.2,286047000.0,N
1700550795.9,286047002.7,N
1700550815.7,286046998.4,N
1700550835.6,286046997.4,N
1700550855.4,286046997.6,N
1700550875.3,286046993.3,N
1700550895.1,286046993.3,N
1700550896.0,286046993.3,N
1700550915.8,286046992.5,N
1700550935.7,286046993.5,N
1700550955.5,286046995.9,N
1700550975.3,286046995.0,N
1700550995.2,286046994.2,N
1700551015.0,286046996.2,N
1700551015.9,286046996.2,N
1700551035.8,286046995.8,N
1700551055.6,286046995.1,N
1700551075.4,286046995.3,N
1700551095.3,286046998.3,N
1700551115.1,286046998.2,N
1700551135.8,286046999.9,N
1700551155.7,286047001.2,N
1700551175.5,286046996.6,N
1700551195.4,286046997.7,N
1700551215.2,286046995.2,N
1700551235.0,286046999.6,N
1700551235.9,286046999.6,N
1700551255.8,286046998.2,N
1700551275.6,286047000.9,N
1700551295.5,286047002.6,N
1700551315.3,286047000.2,N
1700551335.1,286046999.3,N
1700551355.9,286046998.0,N
1700551375.7,286047000.6,N
1700551395.5,286047000.4,N
1700551415.4,286047001.6,N
1700551435.2,286047001.6,N
1700551455.1,286047004.7,N
1700551456.0,286047004.7,N
1700551475.8,286047009.1,Y
1700551495.6,286047009.1,P
1700551515.5,286047006.3,N
1700551535.3,286047007.5,N
1700551555.1,286047003.8,N
1700551575.9,286047005.2,N
1700551595.7,286047006.0,N
1700551615.6,286047005.6,N
1700551635.4,286047005.8,N
1700551655.2,286047004.1,N
1700551675.1,286047003.8,N
1700551676.0,286047003.8,N
1700551695.8,286047001.4,N
1700551715.6,286047002.7,N
1700551735.5,286047002.0,N
1700551755.3,286047001.7,N
1700551775.2,286047005.4,N
1700551795.9,286047005.6,N
1700551815.7,286047003.9,N
1700551835.6,286047002.6,N
1700551855.4,286047001.7,N
1700551875.2,286046998.3,N
1700551895.1,286046997.7,N
1700551896.0,286046997.7,N
1700551915.8,286046997.5,N
1700551935.7,286046997.3,N
1700551955.5,286046997.7,N
1700551975.3,286046999.3,N
1700551995.2,286047000.8,N
1700552015.0,286047000.7,N
1700552015.9,286047000.7,N
1700552035.7,286046999.2,N
1700552055.6,286046998.7,N
1700552075.4,286046997.0,N
1700552095.3,286047001.1,N
1700552115.1,286047001.2,N
1700552116.0,286047001.2,N
1700552135.8,286046998.4,N
1700552155.7,286046997.4,N
1700552175.5,286046995.0,N
1700552195.3,286046993.7,N
1700552215.2,286046994.7,N
1700552235.0,286046994.8,N
1700552235.9,286046994.8,N
1700552255.8,286046992.5,N
1700552275.6,286046992.9,N
1700552295.4,286046991.2,N
1700552315.3,286046990.3,N
1700552335.1,286046991.4,N
1700552355.8,286046990.7,N
1700552375.7,286046989.8,N
1700552395.5,286046986.0,Y
1700552415.4,286046987.9,P
1700552435.2,286046984.9,P
1700552455.0,286046986.3,N
1700552455.9,286046986.0,Y
1700552475.8,286046995.0,P
1700552495.6,286046996.1,N
1700552515.5,286046996.5,N
1700552535.3,286046999.1,N
1700552555.1,286046995.5,N
1700552575.9,286046994.3,N
1700552595.7,286046992.5,N
1700552615.5,286046992.3,N
1700552635.4,286046994.8,N
1700552655.2,286046992.2,N
1700552675.1,286046993.5,N
1700552676.0,286046993.5,N
1700552695.8,286046994.2,N
1700552715.6,286046993.7,N
1700552735.5,286046995.3,N
1700552755.3,286046995.0,N
1700552775.1,286046998.0,N
1700552795.9,286046995.6,N
1700552815.7,286046996.1,N
1700552835.6,286046993.5,Y
1700552855.4,286047001.3,P
1700552875.2,286047001.6,N
1700552895.1,286047000.4,N
1700552896.0,286047000.4,N
1700552915.8,286046998.6,N
1700552935.6,286046994.9,N
1700552955.5,286046995.3,N
1700552975.3,286046996.4,N
1700552995.2,286046998.4,N
1700553015.9,286047001.4,N
1700553035.7,286047003.8,N
1700553055.6,286047008.5,N
1700553075.4,286047009.1,N
1700553095.2,286047006.5,N
1700553115.1,286047005.5,N
1700553116.0,286047005.5,N
1700553135.8,286047006.3,N
1700553155.7,286047003.0,N
1700553175.5,286047007.2,N
1700553195.3,286047005.4,N
1700553215.2,286047000.5,N
1700553235.0,286047001.0,N
1700553235.9,286047001.0,N
1700553255.7,286046998.6,N
1700553275.6,286047000.1,N
1700553295.4,286047004.2,N
1700553315.3,286047000.2,N
1700553335.1,286046998.8,N
1700553336.0,286046998.8,N
1700553355.8,286046996.7,N
1700553375.7,286046993.7,N
1700553395.5,286046991.8,N
1700553415.3,286046992.4,N
1700553435.2,286046990.6,N
1700553455.0,286046992.1,N
1700553455.9,286046992.1,N
1700553475.8,286046993.0,N
1700553495.6,286046994.3,N
1700553515.4,286046993.4,N
1700553535.3,286046994.0,N
1700553555.1,286046994.1,N
1700553575.9,286046994.4,N
1700553595.7,286046990.2,N
